Vertical_Velocity
2 1 0 0 -0 0 2 3 1 0 0 -0 0 -0 -0 -1 -1 -0 -1 -0 -0 -1 -0 -1 -1 -2 -1 -2 -1 -1 -2 -2 -2 -0 -1 -1 -0 -1 -1 -0 -0 -0 -1
0 1 1 1 0 1 3 -0 2 1 0 -0 0 1 1 1 0 0 0 -1 -0 -0 -1 -0 -0 -0 -1 -1 -3 -2 -2 -2 -2 -2 -0 -1 -1 -1 -1 -1 -0 -1 -1
-0 1 2 2 0 1 3 1 0 0 0 1 0 1 1 1 0 -0 -0 0 0 -1 -1 -1 -0 0 -1 -2 0 -2 -2 -2 -1 -1 -1 -2 -1 -2 -1 -1 -0 -0 -1
-1 -1 1 1 1 0 -0 1 1 0 0 -1 -1 -0 0 0 0 0 -0 -0 0 0 -0 -1 -1 -1 -0 -2 -0 -2 -2 -2 -2 -1 -0 -1 -2 -2 -1 -1 -1 -1 -1
0 0 1 1 1 0 -0 1 -0 -2 0 0 -1 -1 -0 -0 -0 -0 0 -0 -0 -0 -0 -1 -1 -1 -1 -1 -1 -0 -1 -2 -2 -3 -1 -1 -0 -2 -2 -2 -0 -1 -1
2 -1 -1 1 1 -0 -1 1 -1 -1 -2 -1 -0 -1 -0 0 0 -0 0 -0 -0 -1 -1 -0 -0 -1 -2 -2 -1 -0 -1 -2 -2 -2 -1 -1 -1 -2 -2 -2 -2 -1 -2
0 0 -1 -1 0 0 3 1 -1 -1 0 -1 -0 -1 -1 -1 -1 -1 -0 -0 -0 -1 -2 -2 0 -1 -2 -1 -2 -0 1 -0 -1 -1 -2 -0 -1 -1 -2 -2 -2 -2 -1
0 -0 -1 0 2 -3 -2 -1 0 0 -3 0 1 1 -1 -0 -1 -1 -1 -0 -0 0 -1 -3 -0 -1 -0 -0 -1 -1 -1 -2 -0 -2 -1 -1 -1 -2 -1 -1 -2 -2 -2
0 0 0 0 2 -2 -0 0 -0 -1 1 -2 -2 5 -3 -0 -0 -1 -2 -1 -1 -1 -0 -1 -1 -0 -1 -1 -1 -1 -0 -3 0 -3 -0 -1 -1 -0 -0 0 -1 -1 -1
1 0 -0 0 2 2 -0 2 -0 1 -1 2 1 -2 -0 1 1 -3 -1 -1 -1 -1 -0 -2 -1 -1 0 -0 -1 -2 -1 -2 1 -4 -2 1 -2 -2 -1 -2 -0 -1 -1
1 2 1 -0 0 0 -1 1 -1 -2 -0 1 1 1 -0 -1 -0 -1 -1 0 -1 -1 -0 -1 -2 -1 -1 -1 -1 -1 -2 0 -0 -2 -1 -1 -1 1 -1 0 -2 -0 -1
3 -0 2 -0 1 1 -1 2 0 1 2 -1 -0 -0 1 2 2 1 -1 -1 -1 -1 -0 -1 -1 -2 -1 1 -1 -1 -1 -0 -1 -2 -2 -1 -1 -1 -1 -1 -1 -2 -1
-7 -4 -2 -4 -2 2 1 -0 -0 -0 1 -1 -0 2 1 0 0 -0 1 0 -1 -1 -2 -0 1 -1 -2 -1 0 -1 -0 -2 -1 -2 -3 -2 -1 -1 -2 -3 -1 -1 -1
1 3 4 1 1 1 -1 -1 -1 1 1 2 0 -1 -1 1 0 1 0 1 -0 -1 -1 -3 -1 0 -1 -1 -0 -0 0 -2 -1 -1 -2 -2 -1 -1 -1 -2 -2 -2 -2
6 2 2 3 2 1 1 1 1 -2 -0 3 2 1 -1 -0 -1 -0 -0 0 -0 0 1 -1 -1 1 -1 -0 -1 -1 -1 -2 -1 -1 -2 -2 -2 -2 -1 -1 -2 -1 -2
8 3 1 3 3 3 1 0 -0 0 -0 1 -0 0 1 0 0 2 0 0 -0 -0 1 -0 -0 0 -1 -2 -1 -1 -0 -1 0 -1 -1 -3 -1 -1 -1 -1 -1 -0 -1
5 6 1 4 3 -0 -1 -1 1 3 1 -1 0 0 2 0 0 1 -0 1 1 -0 -2 2 -1 0 -1 -3 -2 -2 -0 -3 0 -2 -1 -1 -3 -2 -1 -1 -2 -1 -0
7 8 2 0 2 -0 -1 -2 -1 -0 -0 -1 -1 -3 3 0 -0 -2 -2 1 1 0 1 -2 1 -0 -0 -0 -0 -2 -1 -2 -2 -2 -1 -2 0 -3 -1 -2 -1 -1 -0
11 7 2 -1 -1 0 0 -2 2 1 1 1 2 -1 1 1 -0 -1 1 1 0 -0 0 2 2 0 -1 -2 -1 -1 -2 -1 -0 -2 -2 -1 -0 -2 -0 -2 -1 -0 -0
14 -6 9 10 -0 -1 1 -1 4 2 -1 2 2 1 1 0 3 -0 -1 2 0 -1 0 2 1 0 0 1 -0 -0 -1 -0 -1 -0 -1 -2 -1 1 -2 -0 -2 -1 0
10 9 49 9 18 3 1 3 -2 2 -0 3 0 0 -2 -1 3 0 -1 -0 -0 1 -0 -1 1 -0 1 -0 0 -2 -1 -2 -0 -1 1 -2 -1 -0 -3 -1 -1 -1 -1
-1 -22 -5 9 22 -13 -2 8 2 -4 2 1 1 1 2 -3 1 1 2 -0 -1 -2 -2 -2 -1 -0 3 -0 -1 -1 -1 -1 -0 -2 -1 -1 -1 1 -3 -1 -1 -1 -0
1 13 29 -16 0 0 14 7 1 5 10 2 2 3 4 2 1 1 2 2 1 -1 -0 0 -1 3 0 -1 -3 0 -1 -0 -2 -2 -2 4 -3 4 -4 -1 -2 -3 -2
6 -16 72 -23 -8 -2 1 -10 15 10 7 5 3 3 1 1 -1 1 -2 1 0 2 -1 -1 -1 -0 -1 -3 -1 1 -1 -1 -2 -2 -3 -1 1 2 -2 1 -1 -1 -3
-2 -1 12 9 -10 -9 37 -4 -11 12 11 12 5 -19 6 2 -1 -1 -3 0 2 -0 1 4 -1 -2 -0 -1 -2 -1 3 -2 -1 -1 -2 -3 -1 -1 1 3 -2 -1 -2
-5 2 17 20 -23 18 8 -10 -5 73 8 14 66 7 0 -0 0 0 1 2 -3 2 0 3 2 1 -2 -2 -2 -0 -1 -2 -4 -2 3 -3 2 -7 -2 9 4 1 -2
Height
3163 3166 3168 3171 3174 3175 3180 3183 3185 3186 3188 3190 3192 3194 3195 3196 3198 3199 3200 3200 3200 3200 3200 3199 3199 3198 3198 3197 3197 3196 3195 3194 3193 3192 3191 3189 3189 3187 3186 3184 3183 3181 3179
3162 3164 3167 3170 3173 3175 3178 3182 3184 3186 3188 3190 3191 3194 3195 3197 3198 3199 3200 3200 3200 3200 3200 3200 3200 3200 3199 3198 3198 3197 3196 3196 3194 3193 3192 3190 3190 3188 3187 3185 3184 3183 3181
3159 3162 3165 3169 3172 3174 3177 3180 3183 3185 3187 3190 3191 3193 3195 3196 3198 3199 3200 3200 3200 3201 3200 3200 3200 3200 3199 3199 3198 3198 3197 3196 3195 3194 3193 3191 3190 3189 3188 3186 3185 3184 3182
3157 3160 3163 3167 3170 3173 3176 3179 3182 3185 3186 3189 3191 3192 3194 3196 3197 3198 3199 3200 3200 3201 3200 3201 3201 3200 3200 3200 3199 3199 3198 3197 3196 3195 3194 3193 3191 3190 3189 3187 3186 3184 3183
3153 3157 3161 3164 3168 3171 3174 3177 3180 3183 3185 3188 3189 3191 3193 3194 3196 3197 3198 3199 3200 3200 3201 3201 3202 3201 3201 3201 3200 3199 3199 3197 3196 3195 3194 3193 3192 3191 3189 3188 3186 3184 3183
3150 3154 3158 3161 3165 3168 3172 3175 3178 3181 3184 3186 3188 3190 3191 3193 3195 3196 3198 3199 3200 3200 3201 3202 3202 3202 3201 3201 3200 3199 3199 3197 3196 3195 3193 3193 3192 3190 3189 3188 3187 3185 3183
3146 3150 3155 3159 3163 3166 3169 3172 3175 3178 3182 3184 3186 3188 3190 3192 3194 3196 3197 3198 3199 3200 3201 3201 3201 3201 3201 3200 3200 3199 3198 3197 3196 3194 3193 3192 3191 3190 3189 3188 3187 3185 3184
3143 3146 3151 3155 3160 3164 3166 3169 3173 3176 3179 3182 3185 3188 3190 3193 3193 3195 3196 3198 3199 3200 3201 3201 3201 3201 3201 3200 3200 3199 3198 3196 3196 3194 3192 3191 3190 3190 3188 3187 3186 3185 3183
3140 3144 3148 3152 3157 3160 3164 3168 3171 3174 3178 3180 3183 3188 3189 3191 3193 3194 3195 3196 3198 3199 3199 3201 3200 3200 3200 3200 3199 3198 3197 3196 3196 3193 3192 3190 3189 3188 3187 3185 3184 3184 3183
3135 3140 3144 3148 3153 3157 3160 3164 3168 3172 3176 3180 3182 3185 3188 3191 3192 3194 3195 3195 3196 3197 3198 3199 3199 3199 3199 3199 3198 3197 3196 3197 3196 3194 3191 3190 3189 3187 3186 3184 3182 3182 3181
3129 3134 3139 3144 3148 3153 3157 3161 3165 3169 3173 3177 3181 3184 3186 3188 3190 3192 3193 3194 3195 3196 3197 3198 3198 3198 3198 3197 3197 3197 3195 3196 3194 3194 3191 3190 3188 3187 3185 3183 3181 3180 3179
3126 3130 3135 3140 3144 3149 3154 3158 3162 3167 3171 3174 3178 3181 3184 3186 3188 3190 3191 3192 3193 3194 3195 3196 3196 3197 3196 3196 3196 3195 3195 3194 3194 3193 3190 3189 3187 3186 3185 3183 3181 3179 3178
3119 3125 3131 3135 3139 3144 3148 3153 3158 3163 3167 3171 3175 3178 3180 3183 3185 3187 3189 3190 3191 3192 3193 3193 3194 3195 3195 3194 3195 3195 3194 3193 3193 3192 3190 3188 3187 3185 3184 3182 3180 3180 3178
3118 3123 3127 3131 3135 3140 3144 3149 3154 3159 3163 3167 3171 3174 3176 3179 3181 3183 3185 3187 3189 3190 3191 3192 3192 3192 3193 3193 3193 3194 3193 3193 3192 3190 3189 3187 3185 3184 3182 3181 3179 3178 3177
3111 3116 3122 3127 3131 3136 3140 3145 3149 3154 3159 3163 3167 3169 3172 3175 3177 3179 3181 3184 3186 3188 3189 3190 3191 3191 3191 3191 3192 3193 3193 3191 3190 3189 3188 3186 3184 3183 3181 3179 3178 3177 3176
3105 3110 3116 3121 3126 3131 3135 3140 3145 3149 3153 3158 3162 3164 3167 3170 3172 3175 3178 3180 3182 3185 3187 3188 3188 3189 3189 3189 3190 3190 3191 3190 3189 3187 3186 3184 3183 3181 3179 3178 3176 3175 3174
3099 3105 3110 3115 3120 3125 3130 3135 3140 3144 3148 3153 3156 3159 3162 3164 3167 3170 3173 3176 3179 3181 3182 3184 3185 3186 3187 3188 3187 3188 3188 3187 3186 3185 3184 3182 3180 3178 3177 3176 3174 3172 3171
3090 3098 3103 3108 3113 3118 3123 3128 3133 3138 3142 3146 3151 3154 3157 3159 3162 3165 3168 3171 3174 3177 3179 3180 3181 3183 3184 3185 3185 3185 3185 3184 3183 3182 3181 3179 3177 3176 3174 3173 3171 3170 3169
3076 3087 3093 3099 3106 3112 3116 3121 3127 3132 3136 3141 3145 3149 3152 3154 3157 3160 3164 3166 3168 3171 3173 3175 3176 3178 3179 3180 3181 3181 3181 3180 3180 3178 3176 3175 3175 3173 3171 3170 3168 3166 3165
3062 3071 3079 3089 3096 3103 3109 3114 3119 3124 3129 3134 3139 3143 3145 3148 3152 3155 3158 3160 3162 3165 3167 3170 3171 3172 3174 3175 3176 3176 3176 3176 3175 3174 3173 3172 3171 3170 3168 3167 3164 3162 3161
3055 3059 3063 3076 3085 3091 3099 3105 3110 3116 3122 3127 3131 3136 3139 3143 3146 3149 3152 3154 3156 3158 3161 3164 3166 3167 3168 3169 3170 3170 3170 3170 3170 3169 3169 3168 3167 3165 3164 3162 3160 3158 3156
3048 3053 3057 3063 3072 3080 3091 3096 3102 3108 3113 3117 3123 3128 3132 3136 3139 3142 3145 3147 3150 3152 3155 3157 3158 3160 3161 3163 3163 3164 3165 3165 3164 3164 3163 3162 3161 3160 3158 3157 3156 3154 3152
3039 3045 3045 3054 3061 3072 3077 3086 3093 3098 3104 3109 3114 3119 3123 3127 3131 3134 3137 3139 3142 3145 3147 3149 3151 3153 3154 3155 3156 3157 3158 3158 3158 3158 3158 3157 3155 3155 3152 3151 3150 3148 3146
3032 3034 3039 3045 3050 3059 3064 3070 3082 3088 3094 3099 3104 3109 3113 3117 3121 3124 3127 3130 3134 3136 3139 3141 3143 3144 3145 3146 3148 3150 3150 3150 3151 3151 3150 3151 3150 3149 3148 3145 3143 3141 3139
3021 3026 3031 3036 3041 3046 3055 3060 3068 3077 3082 3088 3093 3095 3101 3105 3109 3114 3118 3121 3124 3128 3130 3132 3134 3135 3136 3139 3140 3141 3141 3142 3143 3144 3142 3141 3144 3142 3141 3140 3136 3133 3131
3016 3021 3021 3024 3033 3036 3044 3050 3057 3059 3068 3071 3068 3085 3089 3094 3099 3105 3108 3111 3114 3119 3121 3122 3124 3126 3128 3129 3131 3132 3132 3133 3133 3134 3137 3132 3134 3133 3133 3135 3132 3128 3125